Location: Habighorst
(52.7089°N, 10.2278°E)
Time: 23:14:32
(UTC+00:00)

ATLAS CENTAUR R/B - Pass Details

Date: 13 January 2026
Orbit: 313 x 360 km, 64.6° (Epoch: 9 February)

Event Time Altitude Azimuth Distance (km) Brightness Sun altitude
Exits shadow 06:20:02 14° 294° (WNW) 1,199 2.4 -9.4°
Maximum altitude 06:22:12 30° 237° (WSW) 715 1.6 -9.1°
Drops below altitude 10° 06:24:54 10° 173° (S) 1,366 3.8 -8.7°
Sets 06:27:00 0° 162° (SSE) 2,188 5.1 -8.4°
